Wind_Speed
11 10 10 10 9 10 10 11 12 12 13 13 13 13 12 12 12 12 11 11 11 11 10 10 10 10 10 9 9 9 8 8 8 7 7 7 7 7 7 6 6 6 6
10 10 9 8 8 9 9 10 11 12 12 12 12 12 12 12 11 11 11 11 10 10 10 10 9 9 9 9 8 8 8 8 7 7 6 6 6 6 6 6 6 6 6
10 9 9 8 8 8 9 10 10 11 11 11 11 11 11 11 11 10 10 10 10 10 9 9 8 8 8 8 8 8 7 7 6 6 6 5 5 6 6 6 5 5 6
9 8 8 8 7 8 8 9 10 10 11 11 11 11 10 10 10 10 9 9 9 9 8 8 8 8 8 8 7 7 6 6 6 6 5 5 5 5 5 5 5 5 5
7 7 7 6 7 7 8 9 9 10 10 10 10 10 10 9 9 9 8 8 8 8 8 7 7 7 7 7 7 6 6 6 5 5 5 5 5 5 5 5 5 5 5
6 6 6 5 6 7 7 8 9 9 10 10 10 10 9 9 9 8 8 8 8 7 7 7 6 6 6 6 6 5 5 5 5 5 5 5 5 5 5 5 4 4 5
5 4 4 4 5 6 7 7 8 9 9 9 9 9 9 9 8 8 8 8 8 7 7 6 6 6 5 5 5 5 5 5 5 5 5 5 4 4 4 4 4 4 5
5 4 3 4 4 5 6 7 7 8 8 8 8 8 8 8 8 8 8 8 7 7 6 6 5 5 5 4 4 4 4 4 5 5 5 4 4 4 4 3 3 4 4
5 4 3 2 3 4 5 6 6 7 7 7 8 8 7 8 8 8 7 7 7 6 6 6 5 5 4 4 4 4 4 4 5 5 5 5 4 3 3 3 3 3 3
4 3 2 2 3 4 5 6 6 6 7 7 7 7 7 7 7 7 7 6 6 6 6 5 5 5 4 4 4 4 4 4 4 4 4 4 4 3 3 3 3 3 3
3 2 2 2 3 4 4 5 5 6 7 7 6 7 7 6 6 6 6 5 6 5 5 5 5 5 5 4 4 4 4 4 4 4 4 4 4 4 3 3 3 3 3
3 2 2 2 2 3 3 4 4 5 6 6 6 6 6 6 6 5 5 5 5 5 5 4 4 5 4 4 4 4 4 4 4 3 4 4 4 4 3 3 3 3 3
2 1 1 1 2 2 2 3 4 5 5 5 5 5 5 4 4 4 4 4 4 4 4 4 4 4 4 4 4 4 4 4 4 4 3 3 3 3 3 3 3 3 2
2 2 1 1 1 1 2 4 4 4 4 4 4 4 4 3 3 3 3 3 3 3 3 4 4 3 3 3 3 3 3 3 3 3 3 3 3 3 2 2 2 2 2
3 2 2 2 2 2 3 4 4 4 4 4 4 3 3 2 2 2 2 2 2 2 2 3 3 3 2 3 3 3 3 3 3 3 3 3 3 2 2 2 1 2 2
4 3 3 3 3 3 4 5 5 5 5 4 4 4 3 3 2 2 2 2 2 2 1 2 2 2 2 2 3 3 3 3 3 3 3 2 2 2 2 1 1 1 1
5 4 4 4 5 5 5 6 6 6 6 6 5 5 4 4 3 3 3 2 2 2 1 1 1 1 1 1 1 1 1 2 2 2 2 1 1 1 1 0 1 1 1
6 6 5 5 5 7 7 7 7 7 7 7 7 6 6 5 5 4 4 3 3 3 2 2 1 1 1 0 0 0 0 1 1 1 1 0 1 1 1 2 2 2 2
7 6 6 5 6 7 8 8 8 8 8 8 7 7 7 6 6 5 5 5 5 5 4 3 2 1 1 1 1 1 2 2 1 2 2 2 2 2 2 3 3 3 3
8 7 7 7 7 6 7 8 8 9 8 9 8 8 8 7 6 6 6 6 6 6 6 5 4 4 3 3 3 3 3 3 3 4 4 4 4 4 4 4 4 5 5
9 9 8 8 7 8 8 8 8 9 10 10 9 8 8 8 8 7 6 6 7 7 7 7 6 6 5 5 5 5 5 5 5 5 6 6 6 6 5 6 6 7 7
10 9 9 9 9 9 9 9 9 9 10 10 9 9 9 9 9 9 8 8 8 8 8 8 8 7 7 7 7 7 7 7 8 8 8 8 9 8 8 8 8 8 9
11 10 9 9 10 10 10 10 10 9 10 10 10 10 10 10 10 10 10 9 10 10 10 10 10 10 9 9 9 9 10 10 10 10 10 11 11 11 10 10 10 11 11
11 11 11 10 10 10 11 11 10 10 10 11 11 11 11 11 11 12 11 11 12 11 12 12 12 12 12 12 11 12 12 12 12 12 12 13 13 13 13 12 13 13 13
11 11 11 11 10 10 10 11 11 12 13 12 12 13 13 13 12 13 13 13 13 14 14 14 13 14 13 14 14 14 13 13 14 15 15 15 15 15 15 16 15 15 15
12 12 11 11 10 10 10 10 11 13 14 14 14 13 14 14 14 14 15 15 15 15 15 15 16 16 16 16 16 16 16 15 15 16 16 17 17 17 17 17 18 18 17
Wind_Direction
87 90 94 98 102 104 104 105 105 103 102 99 97 94 92 90 88 86 84 85 87 88 87 87 86 85 84 84 84 84 84 86 92 95 97 97 97 100 105 111 113 111 110
85 86 91 98 104 107 109 109 108 107 104 100 97 94 92 91 89 87 86 86 88 88 88 88 88 86 85 84 83 82 83 86 90 95 100 100 100 103 105 110 113 113 111
87 89 93 101 108 112 112 110 110 108 105 102 98 96 94 92 91 90 89 89 88 87 89 90 89 87 87 86 83 83 85 88 94 98 100 100 102 105 105 103 106 113 114
90 94 97 103 108 113 114 114 112 110 108 104 101 98 97 96 95 93 92 92 90 90 92 92 90 88 88 87 83 83 83 85 93 99 100 98 102 107 105 103 106 111 116
92 97 102 107 113 115 118 118 114 112 109 107 105 102 100 99 97 96 95 95 92 92 95 94 91 90 88 85 81 81 79 80 85 99 99 99 103 107 109 109 113 115 116
90 98 103 110 117 119 120 121 118 115 114 112 108 105 103 103 101 100 98 96 94 93 94 94 93 90 89 86 83 78 80 80 82 92 96 101 103 104 108 109 114 113 115
85 95 104 114 122 124 126 127 123 119 118 116 112 107 106 107 104 103 100 98 97 95 93 92 94 92 93 90 83 80 86 87 87 92 96 103 104 105 109 108 114 113 114
83 95 107 119 128 129 130 131 128 123 121 119 117 111 111 110 108 107 104 100 99 97 93 92 92 92 95 90 81 82 89 93 99 95 94 100 103 106 107 111 116 119 120
82 93 102 125 147 140 136 138 135 129 126 125 120 116 114 114 112 110 107 103 101 98 95 93 92 94 93 88 85 87 88 99 104 101 98 99 100 102 101 100 108 107 120
76 83 96 128 148 148 149 144 141 137 134 130 124 120 120 119 117 114 114 109 104 100 96 93 93 93 92 90 91 87 85 96 104 105 102 101 103 102 100 94 101 104 112
59 72 100 142 145 146 150 146 147 140 138 136 130 126 123 123 122 119 119 114 105 98 93 91 93 93 91 91 90 86 88 91 102 108 107 104 106 109 106 97 100 107 108
43 56 87 122 151 142 148 156 156 145 141 141 135 128 125 124 122 122 119 115 102 96 92 92 92 93 90 89 85 83 90 95 101 109 114 114 111 111 108 96 95 103 105
16 14 47 116 141 144 156 169 165 155 151 145 141 133 125 123 122 123 118 112 102 94 92 95 92 90 86 87 81 86 94 103 100 111 116 121 120 112 108 102 96 96 99
358 343 313 230 237 233 192 183 183 176 168 159 154 150 144 136 130 131 129 117 105 98 96 95 90 88 88 89 88 90 96 103 102 107 104 117 124 118 112 112 103 93 93
325 311 302 267 260 237 212 199 201 201 192 185 181 176 172 164 161 162 151 143 129 112 101 101 96 91 88 88 91 90 93 94 99 108 104 105 115 117 115 116 114 95 86
318 296 288 266 263 249 231 221 215 213 209 206 205 206 207 202 200 202 193 178 167 145 122 105 94 81 74 81 91 95 98 94 98 107 107 103 104 111 112 102 85 72 56
321 306 292 268 254 248 238 232 229 226 225 224 222 224 225 225 222 218 216 217 208 191 160 129 92 69 83 99 107 106 112 100 105 108 124 112 97 111 118 88 33 8 357
311 302 297 273 260 248 239 232 231 231 235 235 233 234 235 232 231 231 227 230 224 218 212 199 178 55 59 112 121 104 134 173 167 163 145 133 331 305 286 285 292 301 299
312 309 295 276 270 257 246 238 237 238 241 240 239 240 241 238 237 240 237 237 239 235 234 233 231 244 273 276 264 263 269 270 258 259 265 277 294 295 286 283 281 282 288
312 309 298 285 274 263 252 245 241 240 240 244 243 244 250 241 238 243 247 248 244 237 240 245 247 253 264 270 269 263 264 272 272 265 266 272 279 281 281 280 281 282 284
303 301 295 288 279 269 264 250 246 245 242 249 248 249 248 241 244 248 252 256 250 244 246 247 249 256 264 263 266 266 266 272 273 270 267 268 274 283 281 279 279 282 283
296 293 289 284 278 271 267 264 256 254 252 253 250 249 251 250 250 253 255 254 250 248 250 248 249 257 262 265 265 266 268 271 273 272 271 269 272 278 280 282 286 286 285
290 290 285 282 281 277 274 268 261 258 251 251 249 252 256 255 253 255 257 258 256 251 248 248 252 257 261 265 268 268 268 269 273 273 273 273 272 273 276 279 284 286 287
289 286 283 282 278 274 271 268 263 260 256 254 254 256 260 260 259 263 262 260 258 257 255 254 257 259 262 266 270 272 269 271 272 272 273 272 271 273 275 278 282 283 284
286 285 285 282 279 274 270 268 265 262 260 259 258 261 262 263 263 265 265 262 257 258 260 260 262 263 264 267 271 274 273 274 273 271 272 273 273 274 275 277 280 281 280
283 284 284 279 274 270 269 270 269 267 264 260 258 262 265 266 265 264 263 262 261 260 261 263 266 266 266 268 271 274 274 273 274 274 275 275 275 276 276 277 279 278 279
Height
5901 5901 5901 5901 5901 5901 5900 5900 5900 5900 5900 5900 5900 5900 5900 5900 5900 5900 5900 5900 5900 5900 5900 5900 5900 5900 5900 5900 5900 5900 5900 5900 5900 5900 5900 5900 5900 5899 5899 5899 5899 5899 5899
5902 5902 5902 5902 5902 5902 5902 5902 5902 5902 5901 5901 5901 5901 5901 5901 5901 5901 5901 5901 5901 5901 5901 5902 5902 5902 5901 5901 5901 5901 5901 5901 5901 5901 5901 5901 5901 5901 5901 5900 5900 5900 5900
5904 5903 5904 5904 5904 5904 5903 5903 5903 5903 5903 5903 5902 5902 5902 5902 5903 5903 5903 5903 5903 5903 5903 5903 5903 5903 5903 5903 5903 5902 5902 5902 5902 5902 5902 5902 5902 5902 5902 5902 5902 5902 5902
5905 5905 5905 5905 5905 5905 5905 5905 5904 5904 5904 5904 5904 5904 5904 5904 5904 5904 5904 5904 5904 5904 5904 5904 5904 5904 5904 5904 5904 5904 5904 5903 5903 5903 5903 5903 5903 5902 5903 5903 5903 5903 5903
5906 5906 5906 5906 5906 5906 5906 5906 5905 5905 5905 5905 5905 5905 5905 5905 5905 5905 5905 5905 5905 5905 5905 5905 5905 5905 5905 5905 5905 5905 5905 5904 5904 5904 5904 5904 5904 5903 5903 5904 5904 5904 5904
5907 5907 5907 5907 5907 5907 5907 5907 5906 5906 5906 5906 5906 5906 5906 5906 5906 5906 5906 5906 5906 5906 5906 5906 5906 5906 5906 5906 5906 5905 5905 5905 5905 5905 5905 5905 5905 5904 5905 5905 5905 5905 5905
5907 5908 5908 5908 5908 5908 5907 5907 5907 5907 5907 5907 5907 5907 5907 5907 5907 5907 5907 5907 5907 5907 5907 5907 5907 5907 5907 5907 5907 5906 5906 5906 5906 5906 5906 5906 5905 5906 5906 5906 5906 5906 5906
5908 5908 5908 5908 5908 5908 5908 5908 5908 5908 5908 5908 5908 5908 5908 5908 5908 5908 5908 5908 5908 5908 5908 5908 5908 5907 5907 5907 5907 5907 5907 5907 5907 5906 5906 5906 5906 5906 5907 5906 5906 5906 5906
5908 5908 5908 5908 5908 5908 5908 5908 5908 5908 5908 5909 5909 5909 5909 5909 5909 5909 5909 5909 5909 5909 5909 5909 5908 5908 5908 5908 5908 5908 5908 5907 5907 5907 5907 5907 5907 5907 5907 5907 5907 5907 5907
5909 5909 5908 5908 5908 5908 5908 5909 5909 5909 5909 5909 5909 5910 5910 5910 5910 5910 5910 5910 5910 5910 5910 5910 5909 5909 5909 5909 5909 5908 5908 5908 5908 5908 5908 5908 5908 5908 5908 5908 5908 5908 5908
5910 5909 5908 5908 5908 5908 5909 5909 5909 5909 5909 5910 5910 5910 5910 5911 5910 5911 5911 5911 5911 5911 5911 5910 5910 5910 5910 5909 5909 5909 5909 5909 5908 5908 5908 5908 5908 5908 5908 5908 5908 5908 5908
5910 5909 5909 5909 5909 5909 5909 5909 5909 5910 5910 5910 5911 5911 5911 5911 5911 5911 5911 5911 5911 5911 5911 5911 5910 5910 5910 5910 5910 5909 5909 5909 5909 5909 5909 5909 5909 5909 5909 5909 5909 5909 5909
5911 5910 5909 5909 5909 5909 5909 5909 5910 5910 5910 5911 5911 5911 5912 5912 5912 5912 5912 5912 5912 5912 5912 5911 5911 5911 5911 5911 5910 5910 5910 5910 5909 5909 5909 5909 5910 5909 5909 5909 5909 5909 5909
5911 5910 5910 5910 5909 5909 5909 5910 5910 5911 5911 5911 5911 5912 5912 5912 5912 5912 5913 5913 5912 5912 5912 5912 5912 5911 5911 5911 5911 5911 5910 5910 5910 5910 5910 5910 5910 5910 5910 5910 5910 5910 5909
5911 5911 5910 5910 5909 5909 5909 5910 5910 5911 5911 5911 5912 5912 5912 5912 5913 5913 5913 5913 5913 5913 5913 5912 5912 5912 5912 5911 5911 5911 5911 5911 5910 5910 5910 5910 5910 5910 5910 5910 5910 5910 5910
5911 5910 5910 5910 5909 5909 5909 5910 5910 5910 5911 5911 5911 5912 5912 5912 5912 5913 5913 5913 5913 5913 5913 5913 5912 5912 5912 5912 5912 5911 5911 5911 5911 5911 5911 5910 5910 5911 5911 5910 5910 5910 5910
5910 5910 5909 5909 5909 5909 5909 5909 5909 5910 5910 5911 5911 5911 5911 5912 5912 5912 5912 5913 5913 5913 5913 5913 5913 5912 5912 5912 5912 5912 5912 5911 5911 5911 5911 5911 5911 5911 5911 5911 5910 5910 5910
5909 5909 5908 5908 5908 5907 5908 5908 5909 5909 5909 5910 5910 5910 5911 5911 5911 5911 5912 5912 5912 5912 5913 5913 5912 5912 5912 5912 5912 5912 5912 5912 5912 5911 5911 5911 5911 5911 5911 5910 5910 5910 5910
5908 5908 5907 5907 5906 5906 5906 5907 5908 5908 5908 5909 5909 5909 5910 5910 5910 5910 5911 5911 5911 5912 5912 5912 5912 5912 5912 5912 5912 5912 5912 5912 5911 5911 5911 5911 5911 5910 5910 5910 5910 5909 5909
5908 5907 5906 5905 5905 5905 5905 5905 5906 5907 5907 5907 5908 5908 5909 5909 5909 5909 5910 5910 5910 5911 5911 5911 5911 5911 5911 5911 5911 5911 5911 5911 5911 5911 5911 5910 5910 5910 5909 5909 5909 5908 5908
5907 5906 5905 5904 5904 5903 5903 5903 5904 5905 5905 5906 5906 5907 5907 5908 5908 5908 5909 5909 5909 5909 5910 5910 5910 5910 5910 5910 5910 5910 5910 5910 5910 5910 5910 5910 5909 5909 5909 5908 5908 5907 5907
5905 5905 5904 5903 5903 5902 5902 5902 5902 5903 5903 5904 5905 5905 5906 5906 5907 5907 5907 5907 5907 5908 5908 5909 5909 5909 5909 5909 5909 5909 5909 5910 5909 5909 5909 5908 5908 5908 5907 5907 5906 5906 5905
5903 5903 5902 5901 5901 5900 5900 5900 5900 5901 5901 5902 5903 5903 5904 5904 5905 5905 5905 5905 5906 5906 5906 5906 5907 5907 5907 5907 5907 5907 5907 5907 5907 5907 5907 5906 5906 5906 5906 5905 5904 5904 5903
5901 5900 5900 5899 5898 5898 5898 5898 5898 5899 5899 5900 5900 5901 5901 5902 5902 5902 5902 5903 5903 5903 5904 5904 5904 5904 5905 5905 5905 5905 5904 5904 5904 5904 5904 5904 5904 5903 5903 5902 5902 5901 5901
5899 5898 5897 5896 5896 5896 5896 5896 5896 5897 5897 5897 5897 5898 5898 5899 5899 5899 5900 5900 5900 5900 5901 5901 5901 5902 5902 5902 5902 5902 5901 5901 5901 5901 5901 5901 5900 5900 5900 5899 5899 5898 5897
5897 5896 5895 5894 5894 5894 5894 5894 5894 5894 5894 5894 5895 5895 5895 5896 5896 5896 5896 5897 5897 5897 5898 5898 5898 5898 5898 5898 5898 5898 5898 5898 5898 5897 5897 5897 5897 5896 5896 5895 5895 5894 5893